* Astronomy

Members Login
Post Info TOPIC: Asteroid 2010 JO33


L

Posts: 131433
Date:
RE: Asteroid 2010 JO33
Permalink  
 


The 27 - 59 metre wide asteroid 2010 JO33 will make a close pass (23.4 lunar distances, 0.06024 AU), travelling at 9.90 km/second, to the Earth on the 20th April 2018 @ 11:59 UT 00:01.

See more

The Lunar Distance (LD), the distance between Earth and the Moon, equals 384,401 km, (or 0.00256 AU).



__________________


L

Posts: 131433
Date:
Asteroid 2010 JO33 = 2014 KD2
Permalink  
 


Orbital elements:
2010 JO33 = 2014 KD2                                     Earth MOID = 0.0069 AU
Id. P. Sicoli, also suggested (without linking) by B. Allen
Epoch 2014 May 23.0 TT = JDT 2456800.5                  MPC
M   1.60031              (2000.0)            P               Q
n   0.24661497     Peri.    5.78598     -0.58484532     +0.80971617
a   2.5183906      Node   228.43299     -0.74676628     -0.56064170
e   0.5966737      Incl.    3.68770     -0.31669555     -0.17332227
P   4.00           H   25.1           G   0.15           U   0

MPEC 2014 - K18



__________________


L

Posts: 131433
Date:
RE: Asteroid 2010 JO33
Permalink  
 


The 27 - 59 metre wide asteroid 2010 JO33 will make a close pass (4.0 lunar distances, 0.0103 AU), travelling at 8.19 km/second, to the Earth-Moon system on the 17th May 2014 @ 14:39 UT 2 days 12:10.

See more

The Lunar Distance (LD), the distance between Earth and the Moon, equals 384,401 km, (or 0.00256 AU).



__________________


L

Posts: 131433
Date:
Permalink  
 

Asteroid 2010 JO33 has passed the Earth.

__________________


L

Posts: 131433
Date:
Permalink  
 

Close Approach Date: 16:51 UT, 12th May, 2010

Ephemeris
 Date__(UT)__HR:MN     R.A._(ICRF/J2000.0)_DEC  APmag

2010-May-12 00:00 14 16 04.67 -01 46 56.4 16.07
2010-May-12 02:00 14 24 42.84 -01 39 28.6 16.00
2010-May-12 04:00 14 33 33.39 -01 31 41.6 15.95
2010-May-12 06:00 14 42 35.11 -01 23 36.7 15.90
2010-May-12 08:00 14 51 46.63 -01 15 15.4 15.86
2010-May-12 10:00 15 01 06.41 -01 06 39.5 15.83
2010-May-12 12:00 15 10 32.74 -00 57 51.1 15.81
2010-May-12 14:00 15 20 03.79 -00 48 52.8 15.81
2010-May-12 16:00 15 29 37.63 -00 39 47.1 15.82
2010-May-12 18:00 15 39 12.27 -00 30 36.8 15.84
2010-May-12 20:00 15 48 45.72 -00 21 24.8 15.87
2010-May-12 22:00 15 58 15.99 -00 12 14.1 15.92


__________________


L

Posts: 131433
Date:
Permalink  
 

The 24 - 54 metre wide asteroid 2010 JO33 will make a close pass (3.6 lunar distances, 0.0093 AU), travelling at 8.09 km/second, to the Earth-Moon system on the 12th May, 2010.

See more

The Lunar Distance (LD), the distance between Earth and the Moon, equals 384,401 km, (or 0.00256 AU).


__________________


L

Posts: 131433
Date:
Permalink  
 

Orbital elements:
2010 JO33 Earth MOID = 0.0096 AU
Epoch 2010 July 23.0 TT = JDT 2455400.5 MPC
M 17.36104 (2000.0) P Q
n 0.24754809 Peri. 4.01556 -0.60009893 +0.79846870
a 2.5120580 Node 229.11519 -0.73568420 -0.57458830
e 0.5943151 Incl. 3.65987 -0.31408602 -0.17971090
P 3.98 H 25.3 G 0.15 U 8

MPEC 2010 - J50


__________________
Page 1 of 1  sorted by
 
Quick Reply

Please log in to post quick replies.



Create your own FREE Forum
Report Abuse
Powered by ActiveBoard